Date,TemperatureHighF,TemperatureAvgF,TemperatureLowF,DewpointHighF,DewpointAvgF,DewpointLowF,HumidityHigh,HumidityAvg,HumidityLow,PressureMaxIn,PressureMinIn,WindSpeedMaxMPH,WindSpeedAvgMPH,GustSpeedMaxMPH,PrecipitationSumIn
2013-2-1,59,48,40,34,28,19,72,50,24,0.00,40.00,9,4,18,0.00
2013-2-2,72,53,36,48,40,28,79,61,36,0.00,40.00,9,4,21,0.00
2013-2-3,70,52,37,46,36,24,91,62,18,0.00,40.00,5,1,11,0.00
2013-2-4,60,52,44,50,43,34,86,71,52,0.00,40.00,5,2,11,0.00
2013-2-5,67,57,51,57,53,47,93,86,68,0.00,40.00,4,2,9,0.01
2013-2-6,64,56,49,59,54,47,93,90,78,0.00,40.00,6,3,12,0.20
2013-2-7,69,60,54,58,55,52,94,83,60,0.00,40.00,5,2,10,0.13
2013-2-8,60,56,45,57,50,39,91,81,63,0.00,40.00,7,3,19,0.00
2013-2-9,63,52,39,55,44,36,91,78,60,0.00,40.00,8,5,17,0.00
2013-2-10,71,64,61,66,60,55,94,88,82,0.00,40.00,9,5,28,2.04
2013-2-11,61,53,50,59,50,47,94,88,77,0.00,40.00,8,4,16,0.67
2013-2-12,54,52,49,52,49,46,92,91,88,0.00,40.00,8,4,14,1.00
2013-2-13,57,48,36,47,39,34,91,71,46,0.00,40.00,8,4,18,0.01
2013-2-14,64,46,31,41,34,29,92,69,30,0.00,40.00,4,1,14,0.00
2013-2-15,63,48,36,38,35,29,92,65,29,0.00,40.00,6,3,18,0.00
2013-2-16,55,43,32,29,21,15,80,44,23,0.00,40.00,10,4,27,0.00
2013-2-17,66,50,32,42,31,18,79,50,32,0.00,40.00,10,6,18,0.00
2013-2-18,67,58,49,60,49,38,91,72,55,0.00,40.00,13,8,28,1.10
2013-2-19,62,52,43,54,36,26,90,58,26,0.00,40.00,7,4,17,0.32
2013-2-20,56,49,43,34,27,21,66,44,26,0.00,40.00,11,6,21,0.00
2013-2-21,65,57,49,63,46,27,92,69,38,0.00,40.00,12,6,31,0.91
2013-2-22,60,53,48,51,46,43,87,76,53,0.00,40.00,6,4,13,0.01
2013-2-23,65,52,43,44,40,37,87,68,42,0.00,40.00,6,4,12,0.01
2013-2-24,69,53,38,43,37,33,87,59,28,0.00,40.00,8,4,13,0.00
2013-2-25,69,60,50,62,52,28,91,76,41,0.00,40.00,15,5,31,0.36
2013-2-26,58,48,38,37,31,28,89,55,36,0.00,40.00,16,9,32,0.15
2013-2-27,66,50,35,40,34,25,91,59,31,0.00,40.00,7,2,16,0.00
2013-2-28,59,46,35,30,25,19,80,45,21,0.00,40.00,7,4,15,0.00